Time,TemperatureF,DewpointF,PressureIn,WindDirection,WindDirectionDegrees,WindSpeedMPH,WindSpeedGustMPH,Humidity,HourlyPrecipIn,Conditions,Clouds,dailyrainin,SoftwareType,DateUTC
2013-03-26 00:00:00,41.0,-99.9,-100.00,NW,324,6.0,-999.0,-999,-99.99,,,-99.99,,2013-03-26 07:00:00,
2013-03-26 01:00:00,39.0,-99.9,-100.00,NNW,328,3.0,-999.0,-999,-99.99,,,-99.99,,2013-03-26 08:00:00,
2013-03-26 02:00:00,38.0,-99.9,-100.00,WNW,289,2.0,-999.0,-999,-99.99,,,-99.99,,2013-03-26 09:00:00,
2013-03-26 03:00:00,37.0,-99.9,-100.00,West,276,2.0,-999.0,-999,-99.99,,,-99.99,,2013-03-26 10:00:00,
2013-03-26 04:00:00,36.0,-99.9,-100.00,WNW,284,2.0,-999.0,-999,-99.99,,,-99.99,,2013-03-26 11:00:00,
2013-03-26 05:00:00,36.0,-99.9,-100.00,SW,234,2.0,-999.0,-999,-99.99,,,-99.99,,2013-03-26 12:00:00,
2013-03-26 06:00:00,36.0,-99.9,-100.00,SSW,201,1.0,-999.0,-999,-99.99,,,-99.99,,2013-03-26 13:00:00,
2013-03-26 07:00:00,35.0,-99.9,-100.00,SW,235,1.0,-999.0,-999,-99.99,,,-99.99,,2013-03-26 14:00:00,
2013-03-26 10:00:00,37.0,-99.9,-100.00,East,81,2.0,-999.0,-999,-99.99,,,-99.99,,2013-03-26 17:00:00,
2013-03-26 11:00:00,39.0,-99.9,-100.00,SE,140,2.0,-999.0,-999,-99.99,,,-99.99,,2013-03-26 18:00:00,
2013-03-26 12:00:00,42.0,-99.9,-100.00,NNE,17,3.0,-999.0,-999,-99.99,,,-99.99,,2013-03-26 19:00:00,
2013-03-26 13:00:00,45.0,-99.9,-100.00,NNE,14,3.0,-999.0,-999,-99.99,,,-99.99,,2013-03-26 20:00:00,
2013-03-26 14:00:00,47.0,-99.9,-100.00,NE,45,3.0,-999.0,-999,-99.99,,,-99.99,,2013-03-26 21:00:00,
2013-03-26 15:00:00,48.0,-99.9,-100.00,North,6,5.0,-999.0,-999,-99.99,,,-99.99,,2013-03-26 22:00:00,
2013-03-26 16:00:00,47.0,-99.9,-100.00,NNW,336,5.0,-999.0,-999,-99.99,,,-99.99,,2013-03-26 23:00:00,
2013-03-26 17:00:00,46.0,-99.9,-100.00,NW,324,5.0,-999.0,-999,-99.99,,,-99.99,,2013-03-27 00:00:00,
2013-03-26 18:00:00,46.0,-99.9,-100.00,NW,324,5.0,-999.0,-999,-99.99,,,-99.99,,2013-03-27 01:00:00,
2013-03-26 19:00:00,45.0,-99.9,-100.00,NW,322,3.0,-999.0,-999,-99.99,,,-99.99,,2013-03-27 02:00:00,
2013-03-26 20:00:00,44.0,-99.9,-100.00,NW,317,3.0,-999.0,-999,-99.99,,,-99.99,,2013-03-27 03:00:00,
2013-03-26 21:00:00,43.0,-99.9,-100.00,NW,311,3.0,-999.0,-999,-99.99,,,-99.99,,2013-03-27 04:00:00,
2013-03-26 22:00:00,43.0,-99.9,-100.00,WNW,298,2.0,-999.0,-999,-99.99,,,-99.99,,2013-03-27 05:00:00,
2013-03-26 23:00:00,42.0,-99.9,-100.00,SW,215,1.0,-999.0,-999,-99.99,,,-99.99,,2013-03-27 06:00:00,